Date,TemperatureHighF,TemperatureAvgF,TemperatureLowF,DewpointHighF,DewpointAvgF,DewpointLowF,HumidityHigh,HumidityAvg,HumidityLow,PressureMaxIn,PressureMinIn,WindSpeedMaxMPH,WindSpeedAvgMPH,GustSpeedMaxMPH,PrecipitationSumIn
2013-5-30,61,53,44,25,20,14,41,28,17,29.80,29.68,18,3,21,0.06
2013-5-31,59,48,38,30,20,7,71,35,18,29.97,29.77,26,5,28,0.00
2013-6-1,65,42,28,19,13,9,54,33,12,30.10,29.96,15,2,18,0.00
2013-6-2,74,60,38,31,21,12,41,25,10,30.03,29.72,22,4,23,0.00
2013-6-3,72,52,39,32,25,17,58,38,13,29.78,29.64,18,3,20,0.00
2013-6-4,73,65,49,39,30,25,49,28,18,29.76,29.64,23,5,23,0.01
2013-6-5,71,61,45,31,22,18,39,24,14,29.78,29.67,20,5,22,0.00
2013-6-6,73,53,38,29,24,16,58,35,12,29.81,29.69,20,-6,20,0.00
2013-6-7,72,56,37,34,28,23,65,36,17,29.84,29.66,27,4,27,0.00
2013-6-8,76,61,44,36,29,17,55,33,11,29.71,29.58,27,5,30,0.00
2013-6-9,81,63,43,32,25,15,57,28,9,29.78,29.67,18,5,21,0.00
2013-6-10,85,66,43,34,24,17,53,24,9,29.77,29.56,20,4,23,0.00
2013-6-11,81,64,46,27,18,-1,39,20,5,29.79,29.56,30,4,31,0.00
2013-6-12,84,63,44,27,20,13,44,22,7,29.88,29.71,19,4,26,0.00
2013-6-13,81,65,49,42,26,19,57,25,10,29.83,29.60,26,-7,26,0.00
2013-6-14,78,63,47,39,26,12,62,30,10,29.70,29.55,22,5,23,0.00
2013-6-15,75,57,40,47,26,12,62,32,13,29.87,29.69,22,3,27,0.01
2013-6-16,72,58,42,41,33,29,66,42,23,29.91,29.79,23,4,25,0.00
2013-6-17,74,57,38,39,30,23,70,39,16,29.90,29.76,21,4,25,0.00
2013-6-18,78,58,37,36,23,8,63,31,8,29.90,29.62,21,3,22,0.00
2013-6-19,80,61,39,24,8,-10,39,16,3,29.69,29.49,29,4,33,0.00
2013-6-20,79,62,41,20,12,4,36,17,6,29.65,29.55,25,4,28,0.00
2013-6-21,80,62,41,24,17,10,38,19,8,29.71,29.53,25,4,27,0.00
2013-6-22,76,60,42,24,17,12,36,20,9,29.69,29.52,27,5,27,0.00
2013-6-23,76,59,40,28,20,12,40,23,11,29.71,29.54,14,4,18,0.00
2013-6-24,76,59,41,22,14,6,39,19,8,29.69,29.56,28,3,33,0.00
2013-6-25,78,62,43,30,24,15,38,24,15,29.79,29.64,21,4,24,0.00
2013-6-26,84,65,43,35,30,27,55,30,14,29.87,29.72,17,5,21,0.00
2013-6-27,87,67,48,38,32,27,52,30,12,29.92,29.78,27,4,36,0.00
2013-6-28,87,67,46,39,34,28,58,34,12,29.96,29.77,20,4,25,0.00
2013-6-29,84,65,50,43,38,31,61,40,16,29.89,29.64,22,4,28,0.00
2013-6-30,82,62,45,48,39,32,77,48,18,29.86,29.67,24,4,27,0.01
2013-7-1,81,63,42,42,35,27,81,42,14,29.95,29.75,21,5,24,0.01
2013-7-2,79,64,47,43,35,31,58,37,18,29.87,29.66,24,4,26,0.00
2013-7-3,80,62,43,38,33,24,67,38,15,29.80,29.61,26,5,29,0.00
2013-7-4,79,63,48,38,34,28,59,37,17,29.72,29.56,18,3,18,0.00
2013-7-5,79,67,56,49,41,34,73,39,26,29.60,29.45,20,3,20,0.00
2013-7-6,79,68,55,43,40,35,57,38,21,29.65,29.52,22,4,22,0.00
2013-7-7,78,65,52,62,45,40,85,50,28,29.78,29.58,17,3,17,0.06
2013-7-8,82,66,49,48,40,29,82,45,16,29.85,29.74,23,4,26,0.00
2013-7-9,82,68,49,42,35,27,64,33,15,29.89,29.72,16,4,21,0.00
2013-7-10,81,66,51,55,38,32,67,38,20,29.86,29.64,19,3,20,0.05
2013-7-11,84,63,48,56,45,36,93,55,21,29.80,29.60,19,3,19,0.16
2013-7-12,76,58,49,60,52,48,97,83,44,29.86,29.69,13,2,13,0.49
2013-7-13,73,59,50,58,52,49,97,79,46,29.90,29.80,18,3,18,0.18
2013-7-14,75,60,51,55,51,45,98,74,36,29.91,29.75,17,3,17,0.09
2013-7-15,77,59,47,55,50,43,96,76,34,29.85,29.66,17,3,20,0.02
2013-7-16,76,61,49,54,48,41,97,66,33,29.87,29.73,17,2,20,0.03
2013-7-17,81,61,48,55,46,40,95,63,25,29.94,29.73,17,2,17,0.60
2013-7-18,77,57,47,54,50,40,98,83,33,29.98,29.74,14,2,16,0.74
2013-7-19,74,56,44,56,50,44,99,84,44,29.98,29.82,17,3,18,0.72
2013-7-20,79,62,47,57,47,31,99,66,19,29.94,29.65,15,3,16,0.05
2013-7-21,80,64,48,46,40,30,82,47,18,29.74,29.60,17,3,22,0.00
2013-7-22,81,65,48,45,36,23,75,39,13,29.78,29.64,18,4,20,0.00
2013-7-23,82,64,47,51,36,18,90,40,11,29.92,29.66,30,4,30,0.14
2013-7-24,71,59,52,54,48,43,91,69,38,29.85,29.77,17,3,18,0.14
2013-7-25,78,64,49,51,44,34,92,56,21,29.88,29.77,18,4,20,0.05
2013-7-26,79,63,47,47,40,29,83,47,16,29.93,29.78,17,3,19,0.00
2013-7-27,76,57,47,55,46,32,97,68,33,29.89,29.67,18,2,24,0.22
2013-7-28,62,56,52,57,52,49,98,89,66,29.78,29.68,11,1,13,0.39
2013-7-29,68,56,46,52,47,41,97,74,42,29.99,29.76,21,3,27,0.08
2013-7-30,75,57,42,54,43,32,98,66,22,30.12,29.98,20,3,23,0.19
2013-7-31,79,61,43,46,40,34,83,52,22,30.13,29.87,13,2,15,0.00
2013-8-1,61,55,51,55,48,39,96,77,56,29.94,29.84,8,2,11,0.01
2013-8-2,74,61,47,56,49,45,96,68,37,29.97,29.77,15,4,19,0.21
2013-8-3,72,58,48,55,49,45,95,74,45,29.96,29.78,13,2,15,0.04
2013-8-4,70,56,42,58,47,41,98,74,42,30.05,29.92,13,2,14,0.02
2013-8-5,72,58,47,54,48,44,91,70,39,29.96,29.78,13,3,17,0.00
2013-8-6,73,56,45,51,46,36,92,72,29,29.88,29.77,20,2,20,0.01
2013-8-7,59,52,48,51,48,44,95,85,57,29.91,29.82,8,1,8,0.16
2013-8-8,68,53,48,50,46,39,97,79,37,29.99,29.81,15,2,15,0.23
2013-8-9,71,54,39,51,43,31,98,71,23,30.04,29.94,14,2,14,0.07
2013-8-10,70,50,39,48,43,36,95,79,30,30.13,29.96,21,2,25,0.13
2013-8-11,69,53,38,48,41,37,97,70,33,30.18,29.98,27,3,33,0.02
2013-8-12,68,53,41,51,43,38,96,72,37,30.04,29.90,24,3,25,0.04
2013-8-13,73,56,38,48,39,29,98,61,20,30.09,29.94,20,3,21,0.04
2013-8-14,75,57,43,42,35,23,78,48,15,30.02,29.87,20,3,21,0.00
2013-8-15,76,58,39,40,33,27,78,45,18,30.04,29.90,17,3,23,0.00
2013-8-16,78,59,41,38,31,23,71,39,14,30.04,29.86,15,2,15,0.00
2013-8-17,80,62,46,40,35,27,67,40,16,29.98,29.77,15,2,17,0.00
2013-8-18,72,57,48,53,45,38,89,68,35,30.00,29.83,17,3,21,0.04
2013-8-19,81,58,42,52,44,33,97,67,18,30.05,29.82,14,3,19,0.15
2013-8-20,77,60,48,55,48,43,93,68,31,29.92,29.76,15,2,17,0.01
2013-8-21,74,58,43,54,46,39,87,65,35,29.96,29.84,21,3,23,0.01
2013-8-22,78,61,47,50,46,41,88,61,27,30.00,29.78,14,3,14,0.00
2013-8-23,78,60,45,50,45,40,92,61,27,29.87,29.68,17,3,20,0.00
2013-8-24,66,56,48,53,46,40,89,71,49,29.93,29.80,12,2,17,0.11
2013-8-25,70,60,49,54,48,44,88,67,44,29.99,29.87,18,3,19,0.00
2013-8-26,74,61,51,53,50,47,90,70,42,29.97,29.81,13,2,17,0.00
2013-8-27,78,60,45,55,48,41,96,70,28,29.96,29.75,15,3,19,0.02
2013-8-28,80,62,46,50,47,42,94,63,30,29.90,29.76,17,3,19,0.00
2013-8-29,78,62,46,52,45,35,87,58,23,29.95,29.83,16,3,17,0.00
2013-8-30,81,63,53,55,48,41,79,60,27,29.94,29.77,18,2,20,0.00
2013-8-31,74,58,48,52,46,40,94,69,30,29.88,29.74,18,2,18,0.07
2013-9-1,73,58,43,55,48,42,96,74,38,29.94,29.82,11,2,14,0.03
2013-9-2,74,58,48,55,50,47,96,77,43,29.95,29.80,16,3,17,0.02
2013-9-3,77,58,46,55,48,42,94,74,31,29.99,29.83,20,2,21,0.13
2013-9-4,77,60,50,53,49,43,94,71,33,30.01,29.89,12,2,16,0.00
2013-9-5,81,62,49,51,46,38,91,62,22,30.03,29.82,18,2,18,0.00
2013-9-6,81,60,46,55,42,34,81,58,20,29.98,29.75,15,2,16,0.06
2013-9-7,77,60,44,51,42,36,87,56,25,29.94,29.76,16,2,16,0.01
2013-9-8,78,61,49,53,44,33,92,59,21,29.83,29.56,20,3,21,0.05
2013-9-9,68,54,44,54,49,43,97,83,51,29.78,29.63,13,2,15,0.08
2013-9-10,64,52,47,53,49,46,98,89,55,29.89,29.75,14,1,15,0.10
2013-9-11,71,55,46,54,48,39,97,79,32,29.93,29.81,17,2,18,0.04
2013-9-12,70,54,40,51,45,38,97,76,41,30.00,29.77,14,3,16,0.23
2013-9-13,64,53,43,51,47,42,98,81,49,29.89,29.69,13,2,14,0.67
2013-9-14,60,50,45,50,46,42,98,88,65,29.86,29.72,17,2,20,0.11
2013-9-15,63,49,42,50,45,41,98,86,47,30.03,29.85,11,1,13,0.13
2013-9-16,67,50,36,49,43,36,99,81,47,30.12,29.95,14,2,14,0.01
2013-9-17,68,59,47,47,42,36,80,56,31,29.98,29.72,11,3,12,0.00
2013-9-18,68,52,44,48,43,36,97,76,32,29.79,29.62,17,2,21,0.26
2013-9-19,67,50,38,49,41,34,99,76,32,29.95,29.76,15,2,19,0.06
2013-9-20,68,49,32,42,36,31,98,65,28,30.06,29.88,17,3,17,0.00
2013-9-21,68,51,36,42,37,33,90,63,32,29.99,29.72,14,2,14,0.00
2013-9-22,56,45,37,49,42,36,96,89,66,29.72,29.45,12,1,16,0.76
2013-9-23,53,42,32,37,33,28,96,73,42,30.15,29.58,22,4,27,0.04
2013-9-24,65,42,25,38,29,22,90,65,28,30.29,29.97,11,2,11,0.00
2013-9-25,68,48,28,36,28,19,90,52,16,29.98,29.48,32,4,32,0.00
2013-9-26,66,52,42,31,24,16,57,36,15,29.61,29.43,30,6,34,0.00
2013-9-27,53,41,30,41,32,21,95,75,39,30.01,29.45,23,3,27,0.34
2013-9-28,56,36,22,36,27,20,94,73,38,30.32,30.01,13,3,14,0.02
2013-9-29,65,42,26,34,26,15,93,60,15,30.30,30.03,15,2,16,0.01
2013-9-30,70,46,30,37,29,22,79,54,24,30.12,29.84,11,2,16,0.00
2013-10-1,69,51,30,36,31,26,86,50,22,30.02,29.78,17,4,17,0.00
2013-10-2,66,46,30,32,26,20,73,49,19,29.99,29.75,15,3,15,0.00
2013-10-3,65,47,31,34,25,18,79,46,18,29.82,29.52,20,4,22,0.00
2013-10-4,39,31,24,30,18,9,93,63,31,30.29,29.55,20,4,23,0.00
2013-10-5,42,28,21,20,17,15,81,66,35,30.43,30.29,13,2,14,0.00
2013-10-6,62,45,27,28,20,8,69,41,21,30.55,30.30,13,3,15,0.00
2013-10-7,68,43,24,32,26,20,87,57,22,30.37,29.99,14,3,14,0.00
2013-10-8,66,45,27,30,23,15,80,48,15,30.02,29.69,20,2,22,0.00
2013-10-9,61,44,27,33,23,12,86,52,16,29.82,29.70,22,4,24,0.00
2013-10-10,46,37,30,37,33,25,97,86,57,29.80,29.48,17,2,18,0.46
2013-10-11,45,36,29,33,29,26,94,76,51,30.12,29.78,15,2,18,0.01
2013-10-12,51,34,22,31,25,20,93,73,38,30.21,30.04,10,2,11,0.00
2013-10-13,58,39,26,37,29,23,97,71,28,30.18,29.86,20,3,29,0.02
2013-10-14,46,35,26,32,27,20,97,75,36,30.13,29.83,21,3,23,0.01
2013-10-15,43,31,22,30,23,17,95,74,42,30.19,30.04,14,3,14,0.00
2013-10-16,42,31,22,30,23,17,96,76,39,30.23,30.09,17,3,18,0.01
2013-10-17,50,30,16,22,16,8,87,60,19,30.29,30.05,18,2,20,0.00
2013-10-18,43,32,23,23,16,8,72,53,26,30.29,30.06,20,4,24,0.00
2013-10-19,48,27,20,20,14,9,76,59,31,30.34,30.25,11,2,12,0.00
2013-10-20,51,38,22,21,18,14,75,49,24,30.12,29.94,17,3,20,0.00
2013-10-21,52,35,24,24,16,4,84,52,16,30.30,30.09,17,2,18,0.00
2013-10-22,59,36,20,23,18,13,78,51,21,30.40,30.19,13,2,14,0.00
2013-10-23,61,38,22,25,21,18,84,55,19,30.31,30.09,11,2,11,0.00
2013-10-24,58,39,24,25,22,18,82,54,23,30.30,30.09,12,2,13,0.00
2013-10-25,44,36,30,38,31,24,97,82,64,30.27,30.13,10,1,11,0.06
2013-10-26,55,36,26,37,30,21,98,80,29,30.42,30.25,10,2,12,0.01
2013-10-27,56,37,25,31,25,20,94,68,25,30.29,29.88,16,2,16,0.00
2013-10-28,51,40,26,28,22,14,89,53,27,29.90,29.73,28,6,28,0.00
2013-10-29,46,38,28,32,24,14,97,61,30,29.78,29.66,21,4,24,0.00
2013-10-30,34,24,15,27,21,13,94,89,65,30.10,29.77,14,1,15,0.05
2013-10-31,35,27,22,26,22,18,94,81,60,30.23,30.10,21,2,21,0.09
2013-11-1,41,31,22,26,22,16,92,70,43,30.42,30.22,23,4,23,0.03
2013-11-2,50,28,13,26,18,10,88,68,34,30.50,30.15,10,2,13,0.01
2013-11-3,51,34,20,26,19,10,85,59,23,30.16,29.71,28,3,29,0.00
2013-11-4,38,28,18,28,21,16,95,75,47,29.96,29.84,8,2,10,0.00
2013-11-5,31,22,8,28,15,3,96,76,40,30.49,29.91,17,2,21,0.05
2013-11-6,41,20,5,20,11,1,85,70,38,30.79,30.49,17,1,20,0.01
2013-11-7,46,27,13,24,18,11,92,72,36,30.80,30.39,9,2,12,0.00
2013-11-8,56,32,18,24,18,13,86,61,19,30.39,30.09,13,1,18,0.00
2013-11-9,43,28,20,24,19,15,86,70,36,30.38,30.24,8,1,8,0.00
2013-11-10,54,32,19,24,19,15,85,63,23,30.49,30.28,13,2,13,0.00
2013-11-11,54,33,22,22,18,14,76,57,21,30.56,30.38,12,2,13,0.00
2013-11-12,54,33,20,21,17,9,82,55,18,30.71,30.49,12,2,14,0.00
2013-11-13,51,33,18,24,18,13,83,57,26,30.57,30.18,11,2,11,0.00
2013-11-14,49,32,22,26,19,11,82,61,26,30.19,29.88,14,2,14,0.00
2013-11-15,48,30,16,31,20,11,96,70,27,29.93,29.65,18,2,32,0.00
2013-11-16,39,30,18,29,24,16,96,82,53,29.73,29.53,19,2,26,0.06
2013-11-17,45,32,18,26,22,15,88,66,39,30.25,29.71,17,2,24,0.10
2013-11-18,38,23,11,24,16,8,93,78,52,30.50,30.25,10,2,10,0.10
2013-11-19,38,25,12,27,20,10,94,80,53,30.43,30.08,9,2,10,0.00
2013-11-20,42,30,19,32,26,17,97,85,54,30.12,29.87,11,2,11,0.01
2013-11-21,38,31,27,34,29,25,97,93,79,30.20,29.92,6,1,7,0.10
2013-11-22,33,31,26,32,30,25,98,96,91,30.29,30.18,10,1,11,0.00
2013-11-23,32,29,26,29,27,24,97,94,88,30.38,30.23,9,1,9,0.00
2013-11-24,33,28,23,28,25,21,97,90,75,30.23,30.03,13,0,14,0.01
2013-11-25,37,25,15,26,21,13,94,83,59,30.48,30.03,13,2,15,0.06
2013-11-26,33,18,8,24,15,6,93,86,64,30.69,30.47,8,1,9,0.00
2013-11-27,30,16,4,22,13,2,94,87,68,30.72,30.49,7,1,7,0.01
2013-11-28,36,20,9,24,16,7,94,84,51,30.61,30.40,6,1,7,0.02
2013-11-29,38,21,10,23,16,8,94,82,53,30.62,30.47,8,1,9,0.01
2013-11-30,29,15,8,18,11,6,93,87,65,30.66,30.58,6,1,6,0.00
2013-12-1,29,24,22,19,18,16,83,77,66,30.47,30.40,7,1,7,0.00
2013-12-2,47,34,18,22,17,7,92,56,23,30.41,29.77,26,3,27,0.05
2013-12-3,42,37,32,29,22,12,90,55,32,29.77,29.29,16,4,18,0.01
2013-12-4,35,28,19,29,24,16,92,84,66,29.44,29.20,17,4,19,0.00
2013-12-5,10,0,-10,2,-5,-13,86,80,66,30.56,30.31,7,1,7,0.00
2013-12-6,14,-1,-13,4,-6,-17,88,80,61,30.70,30.55,14,1,14,0.00
2013-12-7,13,7,-2,11,4,-5,91,85,73,30.69,30.01,8,1,8,0.00
2013-12-8,16,6,-11,13,0,-14,92,76,45,30.38,29.94,14,2,15,0.00
2013-12-9,13,-5,-14,-3,-12,-19,85,74,42,31.16,30.37,14,2,16,0.00
2013-12-10,9,-6,-18,-1,-11,-22,88,79,61,31.22,31.00,9,1,9,0.00
2013-12-11,23,4,-9,10,-1,-13,90,81,53,31.22,31.03,8,1,9,0.00
2013-12-12,20,4,-8,10,0,-11,91,83,61,31.20,30.77,6,1,7,0.00
2013-12-13,27,10,-6,16,4,-9,89,80,57,30.77,30.47,7,1,7,0.00
2013-12-14,24,12,3,12,7,0,89,81,54,30.79,30.62,10,2,10,0.00
2013-12-15,42,22,5,19,13,2,92,71,34,30.84,30.63,17,3,18,0.03
2013-12-16,42,22,10,22,14,6,93,74,36,30.72,30.57,11,2,13,0.01
2013-12-17,31,18,6,16,11,3,92,77,52,30.83,30.66,9,1,9,0.00
2013-12-18,31,17,6,18,12,3,94,82,57,30.69,30.21,7,1,8,0.00
2013-12-19,40,22,11,24,16,8,94,81,48,30.21,29.86,12,1,13,0.00
2013-12-20,33,22,15,27,20,12,94,89,76,29.95,29.75,10,1,12,0.01
2013-12-21,26,17,7,18,12,4,93,78,60,30.09,29.75,16,3,17,0.00
2013-12-22,29,15,1,10,6,-2,88,69,40,30.58,30.09,18,2,18,0.00
2013-12-23,32,18,7,16,10,3,90,74,45,30.75,30.56,11,2,12,0.00
2013-12-24,42,19,7,25,13,2,92,77,39,30.69,30.39,23,3,29,0.01
2013-12-25,23,10,2,7,2,-4,87,69,44,30.93,30.64,14,2,14,0.00
2013-12-26,25,9,-4,11,3,-8,90,77,50,31.00,30.81,9,1,9,0.00
2013-12-27,27,12,1,14,7,-2,92,81,56,30.97,30.69,8,1,8,0.00
2013-12-28,25,14,3,15,10,0,93,82,64,30.69,30.32,8,1,8,0.00
2013-12-29,31,18,7,17,10,0,92,74,41,30.49,30.30,12,2,12,0.00
2013-12-30,38,18,4,17,8,-1,83,67,37,30.67,30.45,19,2,20,0.00
2013-12-31,38,19,7,22,13,3,88,77,51,30.61,30.38,11,1,15,0.00
2014-1-1,35,26,10,23,12,-1,91,58,23,30.48,30.25,27,5,27,0.00
2014-1-2,31,15,3,11,4,-3,83,64,35,30.69,30.48,8,2,8,0.00